User: anonymous   Login
Location: Unspecified
(0.0000°N, 0.0000°E)
Time: 18:22:09
(UTC+00:00)
Language:

OPS 7613 P/L 4 - Orbit

View from above orbital plane
View from above orbital plane
View from above satellite
View from above satellite

Ground track
Ground track

The orbit data is extracted from the following two-line orbital elements,

1  4237U 69082E   18174.65881905 -.00000017 +00000-0 +26317-4 0  9996
2  4237 070.0136 208.6011 0022068 323.5433 175.2126 13.95473089479603
Epoch (UTC): 23 June 2018 15:48:41
Eccentricity: 0.0022068
inclination: 70.0136°
perigee height: 893 km
apogee height: 925 km
right ascension of ascending node: 208.6011°
argument of perigee: 323.5433°
revolutions per day: 13.95473089
mean anomaly at epoch: 175.2126°
orbit number at epoch: 47960

The dashed part of the orbit path shows where the satellite is in the earth's shadow,  

DLR